Regional Weather Roundup
Issued by NWS Charleston, SC

Home | Current Version | Previous Version | Text Only | Print | Product List | Glossary On
Versions: 1 2 3 4 5 6 7 8 9 10 11 12 13 14 15 16 17 18 19 20 21 22 23 24 25 26 27 28 29 30 31 32 33 34 35 36 37 38 39 40 41 42 43 44 45 46 47 48 49 50
000
ASUS42 KCHS 210512
RWRCHS

REGIONAL WEATHER ROUNDUP
NATIONAL WEATHER SERVICE CHARLESTON SC
1200 AM EST TUE FEB 21 2017

NOTE: "FAIR" INDICATES FEW OR NO CLOUDS BELOW 12,000 FEET WITH NO
SIGNIFICANT WEATHER AND/OR OBSTRUCTIONS TO VISIBILITY.

NOT ALL STATIONS ARE QUALITY CONTROLLED. USE DATA WITH CAUTION...
ESPECIALLY DEWPOINT OBSERVATIONS.

SCZ027-030-031-034>040-042>050-210600-
...SOUTHEAST SOUTH CAROLINA...

CITY           SKY/WX    TMP DP  RH WIND       PRES   REMARKS
N CHARLESTON   MOCLDY    53  50  89 CALM      30.17S
WATERFRONT PRK   N/A     58  57  96 CALM      30.16F
MOUNT PLEASANT LGT RAIN  52  50  93 CALM      30.17F
JOHNS ISLAND   FAIR      54  52  94 CALM      30.17S
PINOPOLIS        N/A     55  54  94 CALM      30.09S
MONCKS CORNER  FAIR      50  46  87 CALM      30.18S
SUMMERVILLE    FAIR      50  46  87 CALM      30.18F
BEAUFORT MCAS  MOCLDY    55  55 100 CALM      30.16F FOG
BEAUFORT ARPT  FAIR      55  54  94 E3        30.16F
HILTON HEAD IS PTCLDY    54  54 100 CALM      30.17S
WALTERBORO     CLOUDY    50  46  87 CALM      30.18S
ALLENDALE      FAIR      55  50  82 CALM      30.15F

...SOUTHERN MIDLANDS AND PEE DEE...

CITY           SKY/WX    TMP DP  RH WIND       PRES   REMARKS
GEORGETOWN     FAIR      50  50 100 CALM      30.20S FOG
KINGSTREE      FAIR      48  45  87 CALM      30.19S
ORANGEBURG     MOCLDY    52  47  83 CALM      30.18S
BARNWELL       FAIR      52  50  93 CALM      30.17S
AIKEN          FAIR      46  43  87 E3        30.19F
MANNING        FAIR      50  34  53 MISG      30.19S
COLUMBIA       CLOUDY    52  46  80 CALM      30.17S
SUMTER         CLOUDY    52  45  78 NE3       30.16S
FLORENCE       CLOUDY    55  48  77 E3        30.21R
MYRTLE BEACH   NOT AVBL
N MYRTLE BEACH CLOUDY    55  50  83 E7        30.20S

$$

GAZ063-065-086>088-099>101-113>116-118-119-134>141-150-210600-
...SOUTHEAST GEORGIA...

CITY           SKY/WX    TMP DP  RH WIND       PRES   REMARKS
SAVANNAH ARPT  CLOUDY    58  54  86 E3        30.15F
HUNTER AAF     PTCLDY    58  58 100 E3        30.12F
FORT STEWART   CLOUDY    53  49  86 CALM      30.12F
STATESBORO     CLOUDY    53  52  99 CALM      30.15S
SYLVANIA       CLOUDY   N/A N/A N/A CALM      30.17S
CLAXTON        FAIR     N/A N/A N/A CALM      30.15F

...CSRA...CENTRAL AND FAR SOUTHEAST GEORGIA...

CITY           SKY/WX    TMP DP  RH WIND       PRES   REMARKS
THOMSON        MOCLDY    52  50  93 CALM      30.20S
AUGUSTA-BUSH   CLOUDY    52  46  80 CALM      30.15F
AUGUSTA-DANIEL CLOUDY    61  43  51 E7        30.16S
SWAINSBORO     FAIR      59  50  72 CALM      30.15F
VIDALIA        PTCLDY    59  54  82 SE5       30.15S
EASTMAN        FAIR      57  45  65 CALM      30.15F
HAZLEHURST     FAIR      62  50  64 SE5       30.12S
ALMA           PTCLDY    58  49  72 E3        30.13F
WAYCROSS       MOCLDY    60  54  79 E5        30.13F
JESUP          FAIR      54  50  87 CALM      30.14F
BAXLEY         FAIR      61  52  72 E5        30.13F
BRUNSWICK      FOG       55  55 100 CALM      30.14F VSB 1/4
SAINT SIMONS   CLOUDY    61  59  93 E6        30.13F

$$

SCZ027-028-034-036>038-045-046-048>050-GAZ119-141-210600-
...LAKE AND SUPPLEMENTAL COASTAL OBSERVATIONS...

STATION/POSITION TIME  TEMP    WIND        PRES    WAVE   SWELL
                       AIR SEA DIR/SP/G            HT/PER HT/PER/DIR
                 (UTC) (F)     (DEG/KT/KT) (MB)    (FT/S) (FT/S/D)
WINYAH BAY       0345   54        CALM     1022.0
LAKE MURRAY      0420   54        CALM     1021.0
ACE BASIN NERRS  NOT AVBL
FORT PULASKI     0436   61 60   70/  5/  6 1021.2F
SAPELO ISLAND    0400   56      80/  3     1021.0

$$

ANZ835-935-AMZ111-154-330-350-352-354-370-450-454-472-210600-
...C-MAN AND BUOY OBSERVATIONS...

STATION/POSITION TIME  TEMP    WIND        PRES    WAVE   SWELL
                       AIR SEA DIR/SP/G            HT/PER HT/PER/DIR
                 (UTC) (F)     (DEG/KT/KT) (MB)    (FT/S) (FT/S/D)
BUOY 41004       0350   67 66  100/  6/  6 1021.3    1/ 5   2/ 60/ 5
BUOY 41008       0350   63 62   90/  8/ 10 1021.0
FOLLY BEACH CMAN 0400   60      50/  3/  3 1022.3F
CAPERS NEARSHORE 0408   60 60   70/  2/  4 1021.7F
FRIPP NEARSHORE  0408   61 61   90/  6/  6 1021.1F


STATION/POSITION TIME  TEMP    WIND        PRES    WAVE   SWELL
                       AIR SEA DIR/SP/G            HT/PER HT/PER/DIR
                 (UTC) (F)     (DEG/KT/KT) (MB)    (FT/S) (FT/S/D)
5E ST. MARYS GA  0430      64                N/A     1/ 4
FRYING PAN BUOY  0450   66 65   70/ 16/ 17 1022.1F   4/ 6   2/ 80/12
BUOY 41025       0450   60 76   50/ 19/ 23 1023.1R   6/ 8
CAPE LOOKOUT NC  0400   58      50/ 16/ 17 1023.2R
BUOY 41002       0450   69 71   30/ 16/ 19 1020.2R   4/ 6   2/190/14
BUOY 41010       NOT AVBL
ST AUGUSTINE FL  0500   67 68   60/  9/ 10 1020.7F


$$



USA.gov is the U.S. government's official web portal to all federal, state and local government web resources and services.